Weather History for KIGQ - November, 2011

Change the Weather History Date:

Saturday, November 12, 2011

  Actual Average (KMDW) Record (KMDW)
Temperature  
Mean Temperature 46 °F 43 °F  
Max Temperature 59 °F 51 °F 70 °F (1949)
Min Temperature 32 °F 36 °F 10 °F (1986)
Degree Days  
Heating Degree Days 20 22  
Month to date heating degree days 230  
Since 1 July heating degree days 661  
Cooling Degree Days 0 0  
Month to date cooling degree days 0  
Year to date cooling degree days 1045  
Moisture  
Dew Point 36 °F    
Average Humidity 71    
Maximum Humidity 96    
Minimum Humidity 46    
Precipitation  
Precipitation 0.00 in 0.12 in 0.70 in (1992)
Month to date precipitation 1.37  
Year to date precipitation 34.47  
Sea Level Pressure  
Sea Level Pressure 29.78 in    
Wind  
Wind Speed 10 mph (SSW)    
Max Wind Speed 21 mph    
Max Gust Speed 29 mph    
Visibility 10 miles    
Events      
T = Trace of Precipitation, MM = Missing Value Source: NWS Daily Summary

Daily Weather History Graph

Daily Weather History Graph

Search for Another Location

Airport or City:

Trip Planner

Search our weather history database for the weather conditions in past years. The results will help you decide how hot, cold, wet, or windy it might be!

Date:

Astronomy

Nov. 12, 2011 Rise Set
Actual Time 6:34 AM CST 4:33 PM CST
Civil Twilight 6:05 AM CST 5:02 PM CST
Nautical Twilight 5:32 AM CST 5:35 PM CST
Astronomical Twilight 4:59 AM CST 6:08 PM CST
Moon 5:47 PM CST (11/12) 8:18 AM CST (11/12)
Length of Visible Light 10h 57m
Length of Day
9h 58m
Full, 97% of the Moon is Illuminated
Nov 12
Full
Nov 18
Last Quarter
Nov 25
New
Dec 2
First Quarter
Dec 10
Full

Hourly Weather History & Observations

Time (CST) Temp. Windchill Dew Point Humidity Pressure Visibility Wind Dir Wind Speed Gust Speed Precip Events Conditions
12:15 AM 35.2 °F 28.8 °F 31.3 °F 85% 29.77 in 10.0 mi SW 8.1 mph - N/A   Clear
12:35 AM 36.5 °F 30.3 °F 32.0 °F 84% 29.77 in 10.0 mi SSW 8.1 mph - N/A   Clear
12:55 AM 35.4 °F 29.7 °F 32.0 °F 87% 29.77 in 10.0 mi SSW 6.9 mph - N/A   Clear
1:15 AM 35.2 °F 28.1 °F 32.2 °F 89% 29.77 in 10.0 mi SSW 9.2 mph - N/A   Clear
1:35 AM 36.0 °F 29.6 °F 32.4 °F 87% 29.77 in 10.0 mi SW 8.1 mph - N/A   Clear
1:55 AM 34.7 °F 29.6 °F 31.8 °F 89% 29.77 in 10.0 mi SSW 5.8 mph - N/A   Clear
2:15 AM 32.7 °F 25.7 °F 31.1 °F 94% 29.77 in 10.0 mi South 8.1 mph - N/A   Clear
2:35 AM 33.8 °F 27.0 °F 32.0 °F 93% 29.77 in 10.0 mi SSW 8.1 mph - N/A   Clear
2:55 AM 34.0 °F 29.8 °F 32.0 °F 92% 29.77 in 10.0 mi SSW 4.6 mph - N/A   Clear
3:15 AM 33.4 °F 30.4 °F 32.0 °F 94% 29.77 in 10.0 mi SSW 3.5 mph - N/A   Clear
3:35 AM 32.7 °F 26.4 °F 31.6 °F 96% 29.77 in 10.0 mi South 6.9 mph - N/A   Clear
3:55 AM 33.3 °F 27.1 °F 32.0 °F 95% 29.77 in 10.0 mi SSW 6.9 mph - N/A   Clear
4:15 AM 33.8 °F 27.7 °F 32.0 °F 93% 29.77 in 10.0 mi SSW 6.9 mph - N/A   Clear
4:35 AM 34.7 °F 28.8 °F 32.2 °F 91% 29.79 in 10.0 mi WSW 6.9 mph - N/A   Clear
4:55 AM 35.8 °F 28.3 °F 32.9 °F 89% 29.79 in 10.0 mi SW 10.4 mph - N/A   Clear
5:15 AM 35.6 °F 29.9 °F 32.5 °F 89% 29.80 in 10.0 mi SSW 6.9 mph - N/A   Clear
5:35 AM 34.5 °F 28.6 °F 32.2 °F 91% 29.80 in 10.0 mi South 6.9 mph - N/A   Clear
5:55 AM 33.1 °F 26.1 °F 31.6 °F 94% 29.80 in 10.0 mi South 8.1 mph - N/A   Clear
6:15 AM 33.4 °F 26.6 °F 31.8 °F 94% 29.80 in 10.0 mi SSW 8.1 mph - N/A   Clear
6:35 AM 33.8 °F 29.6 °F 32.0 °F 93% 29.81 in 10.0 mi SSW 4.6 mph - N/A   Clear
6:55 AM 33.8 °F 27.7 °F 32.0 °F 93% 29.81 in 10.0 mi SSW 6.9 mph - N/A   Clear
7:15 AM 36.1 °F 30.6 °F 32.5 °F 87% 29.82 in 10.0 mi SW 6.9 mph - N/A   Clear
7:35 AM 37.6 °F 31.0 °F 33.4 °F 85% 29.82 in 7.0 mi SSW 9.2 mph - N/A   Clear
7:55 AM 39.2 °F 33.6 °F 34.2 °F 82% 29.82 in 10.0 mi SSW 8.1 mph - N/A   Clear
8:15 AM 41.0 °F 35.2 °F 35.1 °F 79% 29.83 in 10.0 mi SSW 9.2 mph - N/A   Clear
8:35 AM 42.6 °F 37.2 °F 35.8 °F 77% 29.83 in 10.0 mi SSW 9.2 mph - N/A   Clear
8:55 AM 44.4 °F 39.5 °F 36.5 °F 74% 29.84 in 10.0 mi SW 9.2 mph - N/A   Clear
9:15 AM 46.2 °F 41.2 °F 37.2 °F 71% 29.84 in 10.0 mi SW 10.4 mph - N/A   Clear
9:35 AM 47.8 °F - 37.4 °F 67% 29.84 in 10.0 mi SW 12.7 mph - N/A   Clear
9:55 AM 49.6 °F - 38.1 °F 65% 29.83 in 10.0 mi SW 13.8 mph - N/A   Clear
10:15 AM 51.3 °F - 38.3 °F 61% 29.84 in 10.0 mi SW 15.0 mph 20.7 mph N/A   Clear
10:35 AM 52.0 °F - 39.0 °F 61% 29.84 in 10.0 mi SSW 13.8 mph 19.6 mph N/A   Clear
10:55 AM 52.7 °F - 39.2 °F 60% 29.84 in 10.0 mi SSW 16.1 mph - N/A   Clear
11:15 AM 54.3 °F - 39.6 °F 57% 29.83 in 10.0 mi SW 16.1 mph 24.2 mph N/A   Clear
11:35 AM 55.4 °F - 39.6 °F 55% 29.82 in 10.0 mi SSW 16.1 mph 21.9 mph N/A   Clear
11:55 AM 56.1 °F - 39.7 °F 54% 29.81 in 10.0 mi SSW 15.0 mph 19.6 mph N/A   Clear
12:15 PM 56.5 °F - 39.6 °F 53% 29.80 in 10.0 mi SSW 15.0 mph 18.4 mph N/A   Clear
12:35 PM 57.2 °F - 39.2 °F 51% 29.79 in 10.0 mi SSW 17.3 mph 25.3 mph N/A   Clear
12:55 PM 59.0 °F - 39.2 °F 48% 29.78 in 10.0 mi SSW 18.4 mph 26.5 mph N/A   Clear
1:15 PM 59.2 °F - 39.0 °F 47% 29.77 in 10.0 mi SSW 18.4 mph 24.2 mph N/A   Clear
1:35 PM 59.9 °F - 38.8 °F 46% 29.76 in 10.0 mi SSW 20.7 mph - N/A   Clear
1:55 PM 59.4 °F - 38.3 °F 46% 29.75 in 10.0 mi South 18.4 mph 26.5 mph N/A   Clear
2:15 PM 59.2 °F - 38.8 °F 47% 29.75 in 10.0 mi South 13.8 mph 21.9 mph N/A   Clear
2:35 PM 59.2 °F - 38.7 °F 47% 29.75 in 10.0 mi South 16.1 mph 24.2 mph N/A   Clear
2:55 PM 58.8 °F - 38.5 °F 47% 29.74 in 10.0 mi South 17.3 mph 26.5 mph N/A   Clear
3:15 PM 58.1 °F - 38.7 °F 48% 29.74 in 10.0 mi South 17.3 mph 20.7 mph N/A   Clear
3:35 PM 57.6 °F - 38.5 °F 49% 29.73 in 10.0 mi South 12.7 mph 21.9 mph N/A   Clear
3:55 PM 57.4 °F - 38.1 °F 49% 29.73 in 10.0 mi South 17.3 mph 26.5 mph N/A   Clear
4:15 PM 56.7 °F - 37.8 °F 49% 29.73 in 10.0 mi South 19.6 mph 26.5 mph N/A   Clear
4:35 PM 56.1 °F - 37.2 °F 49% 29.72 in 10.0 mi South 20.7 mph 27.6 mph N/A   Clear
4:55 PM 55.6 °F - 37.2 °F 50% 29.72 in 10.0 mi South 16.1 mph 26.5 mph N/A   Clear
5:15 PM 55.0 °F - 37.4 °F 51% 29.72 in 10.0 mi South 19.6 mph 28.8 mph N/A   Clear
5:35 PM 54.9 °F - 37.0 °F 51% 29.72 in 10.0 mi South 18.4 mph 21.9 mph N/A   Clear
5:55 PM 54.3 °F - 37.6 °F 53% 29.71 in 10.0 mi South 18.4 mph 26.5 mph N/A   Clear
6:15 PM 54.0 °F - 37.6 °F 54% 29.70 in 10.0 mi South 18.4 mph 26.5 mph N/A   Clear
6:35 PM 53.6 °F - 37.6 °F 55% 29.70 in 10.0 mi South 19.6 mph 26.5 mph N/A   Clear
6:55 PM 53.6 °F - 38.1 °F 56% 29.69 in 10.0 mi South 18.4 mph 25.3 mph N/A   Clear
7:15 PM 53.6 °F - 39.0 °F 58% 29.69 in 10.0 mi SSW 21.9 mph 34.5 mph N/A   Clear
7:35 PM 53.8 °F - 40.3 °F 60% 29.68 in 10.0 mi SSW 18.4 mph 35.7 mph N/A   Clear
7:55 PM 53.8 °F - 40.8 °F 62% 29.68 in 10.0 mi SSW 25.3 mph 33.4 mph N/A   Clear
8:15 PM 53.8 °F - 41.5 °F 63% 29.68 in 10.0 mi SSW 21.9 mph 32.2 mph N/A   Clear
8:35 PM 53.6 °F - 41.9 °F 65% 29.68 in 10.0 mi SSW 24.2 mph 31.1 mph N/A   Clear
8:55 PM 53.8 °F - 42.3 °F 65% 29.68 in 10.0 mi SSW 23.0 mph 33.4 mph N/A   Clear
9:15 PM 53.8 °F - 42.4 °F 65% 29.67 in 10.0 mi SSW 26.5 mph 36.8 mph N/A   Clear
9:35 PM 53.6 °F - 42.8 °F 67% 29.67 in 10.0 mi SSW 24.2 mph 34.5 mph N/A   Clear
9:55 PM 53.1 °F - 43.3 °F 70% 29.66 in 10.0 mi SSW 25.3 mph 35.7 mph N/A   Clear
10:15 PM 52.7 °F - 43.9 °F 72% 29.66 in 10.0 mi SSW 23.0 mph 32.2 mph N/A   Scattered Clouds
10:35 PM 52.5 °F - 44.4 °F 74% 29.65 in 10.0 mi South 20.7 mph 29.9 mph N/A   Scattered Clouds
10:55 PM 53.6 °F - 44.6 °F 72% 29.64 in 10.0 mi SSW 23.0 mph 29.9 mph N/A   Mostly Cloudy
11:15 PM 53.1 °F - 45.5 °F 75% 29.63 in 10.0 mi SSW 24.2 mph 32.2 mph N/A   Overcast
11:35 PM 52.9 °F - 45.3 °F 75% 29.62 in 10.0 mi SSW 23.0 mph 34.5 mph N/A   Mostly Cloudy
11:55 PM 53.4 °F - 45.5 °F 75% 29.61 in 10.0 mi SSW 27.6 mph 36.8 mph N/A   Mostly Cloudy